DW5444 Weather Reports


time (UTC)temp
F
wind
direction
speed
knots
gust
knots
rain 1hr
in
rain 24hr
in
rain mn
in
humidity
%
barometer
mb
20260901164521 65 211 6.1 8.7 0.00 0.00 0.00 47 1007.1
20260901163020 64 213 4.3 7.8 0.00 0.00 0.00 47 1006.6
20260901161518 64 223 6.1 9.6 0.00 0.00 0.00 49 1006.8
20260901160023 64 251 6.1 7.8 0.00 0.00 0.00 45 1006.0
20260901154513 64 239 4.3 7.0 0.00 0.00 0.00 45 1006.0
20260901153023 64 219 2.6 5.2 0.00 0.00 0.00 43 1006.2
20260901151510 64 192 1.7 3.5 0.00 0.00 0.00 44 1006.1
20260901150015 63 177 1.7 4.3 0.00 0.00 0.00 44 1006.1
20260901144503 62 149 1.7 3.5 0.00 0.00 0.00 45 1005.9
20260901143101 61 130 1.7 3.5 0.00 0.00 0.00 46 1005.7
20260901141603 60 128 1.7 3.5 0.00 0.00 0.00 46 1005.8
20260901140058 0 0.0 0.0 0.00 0.00 0.00 1005.6
20260901134550 0 0.0 0.0 0.00 0.00 0.00 1005.5
20260901133050 0 0.0 0.0 0.00 0.00 0.00 1005.5
20260901131543 0 0.0 0.0 0.00 0.00 0.00 1005.4
20260901130038 0 0.0 0.0 0.00 0.00 0.00 1005.4
20260901124541 0 0.0 0.0 0.00 0.00 0.00 1005.3
20260901123028 0 0.0 0.0 0.00 0.00 0.00 1005.3
20260901121523 0 0.0 0.0 0.00 0.00 0.00 1005.4
20260901120021 56 66 1.7 2.6 0.00 0.00 0.00 51 1005.4
20260901114520 56 81 2.6 3.5 0.00 0.00 0.00 52 1005.3
20260901113020 58 80 2.6 2.6 0.00 0.00 0.00 48 1005.3
20260901111518 59 77 1.7 2.6 0.00 0.00 0.00 48 1005.3
20260901110017 59 83 1.7 2.6 0.00 0.00 0.00 48 1005.4
20260901104516 59 83 1.7 2.6 0.00 0.00 0.00 47 1005.5
20260901103016 58 77 1.7 2.6 0.00 0.00 0.00 49 1005.6
20260901101513 58 86 1.7 1.7 0.00 0.00 0.00 50 1005.6
20260901100012 56 81 1.7 2.6 0.00 0.00 0.00 51 1005.7
20260901094516 57 69 0.9 2.6 0.00 0.00 0.00 50 1005.9
20260901093009 58 72 1.7 2.6 0.00 0.00 0.00 50 1006.0
20260901091507 57 76 2.6 3.5 0.00 0.00 0.00 51 1006.1
20260901090007 57 82 2.6 3.5 0.00 0.00 0.00 50 1006.1
20260901084506 56 79 1.7 2.6 0.00 0.00 0.00 51 1006.2
20260901083006 55 81 1.7 2.6 0.00 0.00 0.00 52 1006.2
20260901081503 55 72 1.7 2.6 0.00 0.00 0.00 53 1006.2
20260901080002 54 69 0.9 2.6 0.00 0.00 0.00 53 1006.3
20260901074559 56 83 1.7 2.6 0.00 0.00 0.00 51 1006.3
20260901073055 57 83 2.6 2.6 0.00 0.00 0.00 49 1006.4
20260901071554 58 80 1.7 2.6 0.00 0.00 0.00 49 1006.3
20260901070052 57 76 0.9 1.7 0.00 0.00 0.00 49 1006.3
20260901064551 57 85 1.7 3.5 0.00 0.00 0.00 49 1006.4
20260901063056 57 66 0.9 2.6 0.00 0.00 0.00 50 1006.5
20260901061549 56 79 1.7 2.6 0.00 0.00 0.00 50 1006.6
20260901060048 57 80 2.6 3.5 0.00 0.00 0.00 48 1006.4
20260901054548 57 83 0.9 1.7 0.00 0.00 0.00 49 1006.3
20260901053057 59 80 1.7 2.6 0.00 0.00 0.00 46 1006.4
20260901051551 59 83 1.7 3.5 0.00 0.00 0.00 45 1006.5
20260901050046 59 80 1.7 2.6 0.00 0.00 0.00 46 1006.6
20260901044546 59 80 1.7 2.6 0.00 0.00 0.00 44 1006.7
20260901043046 60 76 0.9 1.7 0.00 0.00 0.00 43 1006.7
20260901041549 59 85 0.9 2.6 0.00 0.00 0.00 42 1006.6
20260901040045 61 80 0.0 1.7 0.00 0.00 0.00 40 1006.6
20260901034544 65 114 0.9 1.7 0.00 0.00 0.00 36 1006.5
20260901033046 66 89 0.9 2.6 0.00 0.00 0.00 35 1006.3
20260901031544 67 130 1.7 3.5 0.00 0.00 0.00 34 1006.3
20260901030043 67 72 0.9 2.6 0.00 0.00 0.00 32 1006.2
20260901024542 68 124 0.0 1.7 0.00 0.00 0.00 32 1006.2
20260901023041 70 83 3.5 4.3 0.00 0.00 0.00 32 1006.2
20260901021540 71 97 1.7 4.3 0.00 0.00 0.00 30 1006.2
20260901020039 73 41 1.7 4.3 0.00 0.00 0.00 28 1006.3
20260901014538 75 47 2.6 9.6 0.00 0.00 0.00 26 1006.4
20260901013037 76 55 1.7 8.7 0.00 0.00 0.00 25 1006.4
20260901011539 76 335 3.5 7.0 0.00 0.00 0.00 24 1006.4
20260901010040 77 16 3.5 12.2 0.00 0.00 0.00 24 1006.6
20260901004533 77 19 5.2 9.6 0.00 0.00 0.00 24 1006.6
20260901003032 77 51 3.5 13.0 0.00 0.00 0.00 24 1006.9
20260901001532 78 34 6.1 9.6 0.00 0.00 0.00 24 1007.0
20260901000035 78 43 7.0 12.2 0.00 0.00 0.00 24 1007.2
20260831234528 78 64 7.0 12.2 0.00 0.00 0.00 24 1007.3
20260831233027 78 40 7.0 11.3 0.00 0.00 0.00 24 1007.5
20260831231525 78 52 7.0 12.2 0.00 0.00 0.00 25 1007.7
20260831230023 78 315 6.1 12.2 0.00 0.00 0.00 26 1007.8
20260831224522 78 359 5.2 9.6 0.00 0.00 0.00 25 1008.0
20260831223025 78 34 6.1 10.4 0.00 0.00 0.00 25 1008.3
20260831221521 78 72 7.0 14.8 0.00 0.00 0.00 26 1008.4
20260831220016 77 13 7.0 12.2 0.00 0.00 0.00 26 1008.8
20260831214513 78 54 5.2 12.2 0.00 0.00 0.00 26 1009.0
20260831213011 77 30 6.1 13.0 0.00 0.00 0.00 27 1009.1
20260831211509 77 334 4.3 12.2 0.00 0.00 0.00 26 1009.2
20260831210015 77 324 5.2 10.4 0.00 0.00 0.00 25 1009.4
20260831204504 76 44 5.2 13.0 0.00 0.00 0.00 24 1009.7
20260831203002 76 64 8.7 13.0 0.00 0.00 0.00 26 1009.7
20260831201612 76 23 6.1 11.3 0.00 0.00 0.00 25 1010.0
20260831200057 76 28 5.2 10.4 0.00 0.00 0.00 26 1010.3
20260831194553 75 49 5.2 10.4 0.00 0.00 0.00 26 1010.4
20260831193123 74 41 7.0 13.0 0.00 0.00 0.00 26 1010.6
20260831191551 74 41 5.2 10.4 0.00 0.00 0.00 27 1010.8
20260831190049 73 305 5.2 9.6 0.00 0.00 0.00 28 1011.1
20260831184542 73 47 4.3 11.3 0.00 0.00 0.00 28 1011.3
20260831183050 73 52 4.3 9.6 0.00 0.00 0.00 28 1011.5
20260831181549 72 6 4.3 8.7 0.00 0.00 0.00 29 1011.7
20260831180038 71 23 5.2 9.6 0.00 0.00 0.00 31 1011.9
20260831174531 70 8 3.5 10.4 0.00 0.00 0.00 32 1012.1
20260831173028 69 35 3.5 8.7 0.00 0.00 0.00 32 1012.3
20260831171527 69 325 5.2 9.6 0.00 0.00 0.00 32 1012.3
20260831170025 68 38 3.5 10.4 0.00 0.00 0.00 32 1012.3